Location: Bazinghen
(50.8246°N, 1.6616°E)
Time: 09:08:53
(UTC+00:00)

Cosmos 1455 - Pass Details

Date: 09 April 2020
Orbit: 498 x 524 km, 82.5° (Epoch: 06 June)

Event Time Altitude Azimuth Distance (km) Brightness Sun altitude
Exits shadow 19:56:12 11° 78° (ENE) 1,660 4.3 -12.0°
Drops below altitude 10° 19:57:13 10° 62° (ENE) 1,754 4.6 -12.2°
Sets 20:00:41 0° 29° (NNE) 2,656 5.8 -12.7°
